Miscellaneous Local Product
Issued by NWS Hastings, NE

Home | Current Version | Previous Version | Graphics & Text | Print | Product List | Glossary On
Versions: 1 2 3 4 5 6 7 8 9 10 11 12 13 14 15 16 17 18 19 20 21 22 23 24 25 26 27 28 29 30 31 32 33 34 35 36 37 38 39 40 41 42 43 44 45 46 47 48 49 50
258
AXUS43 KGID 180502
MISGRI

GID CWA HOURLY WEATHER ROUNDUP
NATIONAL WEATHER SERVICE HASTINGS NE
1200 AM CDT FRI AUG 18 2017

NOTE: "FAIR" INDICATES FEW OR NO CLOUDS BELOW 12,000 FEET WITH NO
SIGNIFICANT WEATHER AND/OR OBSTRUCTIONS TO VISIBILITY.

...SOUTH CENTRAL NEBRASKA...

CITY           SKY/WX    TMP DP  RH WIND       PRES   REMARKS
GRAND ISLAND   MOCLDY    70  61  73 S8        29.94R
HASTINGS       CLOUDY    71  59  65 S8        29.94F
KEARNEY        CLOUDY    71  58  63 S8        29.94R
ORD            CLOUDY    68  60  75 NW22G36   30.01R SQUALL
YORK           PTCLDY    66  63  88 S6        29.94R
AURORA         CLOUDY    71  60  69 S7        29.93R
LEXINGTON      CLOUDY    69  58  68 SE5       29.93R
HOLDREGE       CLOUDY    69  56  63 S7        29.93S
HEBRON         CLOUDY    70  61  72 S9        29.93F

...NEBRASKA PANHANDLE...

CITY           SKY/WX    TMP DP  RH WIND       PRES   REMARKS
CHADRON        CLEAR     58  52  80 SW3       30.02S
ALLIANCE       CLOUDY    59  51  75 MISG      30.04R
SCOTTSBLUFF    CLEAR     66  47  50 CALM      30.07R
SIDNEY         CLEAR     63  49  60 N10       30.08S

...WESTERN AND NORTH CENTRAL NEBRASKA...

CITY           SKY/WX    TMP DP  RH WIND       PRES   REMARKS
VALENTINE      CLOUDY    66  57  72 S8        29.95R
AINSWORTH      LGT RAIN  63  60  90 E8        29.94F
ONEILL         RAIN      63  62  97 W13       30.01R
BROKEN BOW     CLOUDY    72  54  53 N15G36    30.03R
IMPERIAL       CLEAR     62  54  74 S6        30.00R
NORTH PLATTE   CLEAR     67  58  72 N9        30.00R
MCCOOK         CLOUDY    66  57  72 SW12      29.97R

...EASTERN NEBRASKA...

CITY           SKY/WX    TMP DP  RH WIND       PRES   REMARKS
NORFOLK        CLEAR     65  62  90 SE9       29.91S
SO SIOUX CITY  CLEAR     62  61  96 CALM      29.91R
TEKAMAH        CLEAR     62  61  96 S5        29.91S FOG
COLUMBUS       CLEAR     64  62  93 E3        29.93R
ALBION         CLOUDY    68  64  87 CALM      29.92S
OMAHA EPPLEY   CLEAR     69  61  75 SE5       29.92S
OFFUTT AFB     CLEAR     60  59  96 CALM      29.92S
MILLARD        CLEAR     67  65  93 CALM      29.93S
LINCOLN        CLEAR     68  62  81 S3        29.93S
NEBRASKA CITY  CLEAR     64  63  97 S6        29.94S
BEATRICE       CLEAR     67  62  82 CALM      29.94F
FALLS CITY     CLEAR     67  61  81 CALM      29.93F

...NORTHERN KANSAS...

CITY           SKY/WX    TMP DP  RH WIND       PRES   REMARKS
GOODLAND       CLEAR     66  60  81 S14       30.05R
HILL CITY      CLOUDY    66  61  84 S14       30.03F
NORTON         CLEAR     73  52  46 S21G26    29.94S
PHILLIPSBURG   LGT RAIN  72  57  60 S15       29.95F
SMITH CENTER   MOCLDY    70  55  60 SW8       29.98R
HAYS           TSTM      71  60  68 W41G51    30.11R
RUSSELL        CLOUDY    75  58  55 S12       29.98R
CONCORDIA      CLOUDY    73  59  61 S12       29.94F
SALINA         CLOUDY    69  60  73 S9        29.97S
TOPEKA         CLEAR     65  63  93 CALM      29.95F



USA.gov is the U.S. government's official web portal to all federal, state and local government web resources and services.